TimeCDT,TemperatureF,Dew PointF,Humidity,Sea Level PressureIn,VisibilityMPH,Wind Direction,Wind SpeedMPH,Gust SpeedMPH,PrecipitationIn,Events,Conditions,WindDirDegrees,DateUTC
12:35 AM,44.6,35.6,71,29.83,10.0,SSW,11.5,-,N/A,,Clear,200,2012-10-13 05:35:00
12:55 AM,44.6,35.1,69,29.80,10.0,South,13.8,-,N/A,,Clear,190,2012-10-13 05:55:00
1:15 AM,43.7,35.1,72,29.78,10.0,SSW,12.7,-,N/A,,Clear,200,2012-10-13 06:15:00
1:35 AM,43.3,35.2,73,29.77,10.0,SSW,12.7,-,N/A,,Clear,200,2012-10-13 06:35:00
1:55 AM,43.2,35.6,75,29.78,10.0,SSW,11.5,-,N/A,,Clear,200,2012-10-13 06:55:00
2:15 AM,43.7,35.8,74,29.77,10.0,SSW,13.8,-,N/A,,Clear,200,2012-10-13 07:15:00
2:35 AM,44.2,36.5,74,29.76,10.0,SSW,12.7,-,N/A,,Clear,200,2012-10-13 07:35:00
2:55 AM,44.6,36.5,73,29.75,10.0,SSW,10.4,-,N/A,,Clear,210,2012-10-13 07:55:00
3:15 AM,44.6,36.7,74,29.74,10.0,South,13.8,19.6,N/A,,Clear,190,2012-10-13 08:15:00
3:35 AM,44.6,37.0,75,29.74,10.0,South,15.0,-,N/A,,Clear,190,2012-10-13 08:35:00
3:55 AM,44.8,37.6,76,29.72,10.0,SSW,16.1,-,N/A,,Clear,200,2012-10-13 08:55:00
4:15 AM,45.1,38.1,76,29.71,10.0,SSW,16.1,-,N/A,,Clear,200,2012-10-13 09:15:00
4:35 AM,45.5,38.5,76,29.71,10.0,South,17.3,23.0,N/A,,Clear,190,2012-10-13 09:35:00
4:55 AM,45.5,38.7,77,29.71,10.0,South,17.3,24.2,N/A,,Clear,190,2012-10-13 09:55:00
5:15 AM,45.5,38.8,78,29.70,10.0,SSW,17.3,23.0,N/A,,Clear,200,2012-10-13 10:15:00
5:35 AM,45.9,39.2,78,29.70,10.0,SSW,17.3,23.0,N/A,,Clear,200,2012-10-13 10:35:00
5:55 AM,45.7,39.4,79,29.70,10.0,South,18.4,-,N/A,,Clear,190,2012-10-13 10:55:00
6:15 AM,44.8,39.2,81,29.69,10.0,SSW,11.5,-,N/A,,Clear,200,2012-10-13 11:15:00
6:35 AM,44.4,39.4,82,29.69,10.0,SSW,11.5,-,N/A,,Clear,200,2012-10-13 11:35:00
6:55 AM,44.4,39.6,83,29.68,10.0,SSW,13.8,-,N/A,,Clear,210,2012-10-13 11:55:00
7:15 AM,44.6,39.6,82,29.68,10.0,SSW,8.1,-,N/A,,Clear,210,2012-10-13 12:15:00
7:35 AM,44.1,39.4,84,29.68,10.0,SW,9.2,-,N/A,,Clear,230,2012-10-13 12:35:00
7:55 AM,43.2,39.2,86,29.68,10.0,SSW,9.2,-,N/A,,Clear,200,2012-10-13 12:55:00
8:15 AM,44.1,39.6,84,29.69,10.0,SSW,9.2,-,N/A,,Clear,210,2012-10-13 13:15:00
8:35 AM,44.6,41.0,87,29.69,10.0,SW,10.4,-,N/A,,Clear,220,2012-10-13 13:35:00
8:55 AM,45.7,40.1,81,29.69,10.0,SSW,12.7,-,N/A,,Clear,210,2012-10-13 13:55:00
9:15 AM,48.2,41.0,76,29.69,10.0,SW,10.4,-,N/A,,Clear,220,2012-10-13 14:15:00
9:35 AM,49.8,41.0,72,29.69,10.0,SW,12.7,-,N/A,,Clear,220,2012-10-13 14:35:00
9:55 AM,52.3,41.2,66,29.69,10.0,WSW,11.5,-,N/A,,Clear,240,2012-10-13 14:55:00
10:15 AM,54.7,41.4,61,29.69,10.0,WSW,11.5,-,N/A,,Clear,250,2012-10-13 15:15:00
10:35 AM,57.2,41.4,55,29.70,10.0,West,11.5,-,N/A,,Clear,260,2012-10-13 15:35:00
10:55 AM,59.9,41.4,50,29.70,10.0,WNW,9.2,-,N/A,,Clear,290,2012-10-13 15:55:00
11:15 AM,62.2,41.2,46,29.70,10.0,WNW,12.7,-,N/A,,Clear,300,2012-10-13 16:15:00
11:35 AM,64.0,40.5,42,29.69,10.0,NW,13.8,17.3,N/A,,Clear,320,2012-10-13 16:35:00
11:55 AM,64.6,39.9,40,29.70,10.0,NW,9.2,-,N/A,,Clear,310,2012-10-13 16:55:00
12:15 PM,66.2,39.2,37,29.70,10.0,NNW,9.2,-,N/A,,Clear,340,2012-10-13 17:15:00
12:35 PM,66.2,38.7,36,29.70,10.0,NW,6.9,-,N/A,,Clear,310,2012-10-13 17:35:00
12:55 PM,67.3,39.0,35,29.70,10.0,North,6.9,-,N/A,,Clear,350,2012-10-13 17:55:00
1:15 PM,68.0,39.2,35,29.70,10.0,North,6.9,-,N/A,,Clear,360,2012-10-13 18:15:00
1:35 PM,69.1,38.5,33,29.70,10.0,NNW,8.1,-,N/A,,Clear,340,2012-10-13 18:35:00
1:55 PM,69.1,39.0,33,29.69,10.0,NNW,9.2,-,N/A,,Clear,330,2012-10-13 18:55:00
2:15 PM,70.5,39.0,32,29.69,10.0,North,8.1,16.1,N/A,,Scattered Clouds,10,2012-10-13 19:15:00
2:35 PM,72.1,39.0,30,29.69,10.0,North,12.7,18.4,N/A,,Scattered Clouds,360,2012-10-13 19:35:00
2:55 PM,70.5,38.5,31,29.69,10.0,North,11.5,-,N/A,,Scattered Clouds,350,2012-10-13 19:55:00
3:15 PM,70.9,37.4,29,29.69,10.0,North,16.1,19.6,N/A,,Scattered Clouds,350,2012-10-13 20:15:00
3:35 PM,72.5,37.2,28,29.69,10.0,North,16.1,-,N/A,,Mostly Cloudy,360,2012-10-13 20:35:00
3:55 PM,71.1,36.7,28,29.68,10.0,NNW,17.3,20.7,N/A,,Scattered Clouds,340,2012-10-13 20:55:00
4:15 PM,71.6,35.4,27,29.69,10.0,North,16.1,21.9,N/A,,Mostly Cloudy,350,2012-10-13 21:15:00
4:35 PM,70.2,35.8,28,29.70,10.0,North,17.3,25.3,N/A,,Mostly Cloudy,10,2012-10-13 21:35:00
4:55 PM,71.1,35.4,27,29.71,10.0,North,19.6,25.3,N/A,,Clear,360,2012-10-13 21:55:00
5:15 PM,70.7,34.7,27,29.71,10.0,North,19.6,25.3,N/A,,Scattered Clouds,360,2012-10-13 22:15:00
5:35 PM,70.7,34.2,26,29.72,10.0,North,18.4,24.2,N/A,,Clear,360,2012-10-13 22:35:00
5:55 PM,69.3,34.9,28,29.73,10.0,North,19.6,24.2,N/A,,Clear,350,2012-10-13 22:55:00
6:15 PM,68.2,34.9,29,29.74,10.0,North,12.7,23.0,N/A,,Clear,360,2012-10-13 23:15:00
6:35 PM,64.9,35.1,33,29.75,10.0,NNE,5.8,-,N/A,,Clear,20,2012-10-13 23:35:00
6:55 PM,60.8,33.8,36,29.76,10.0,North,8.1,-,N/A,,Clear,10,2012-10-13 23:55:00
7:15 PM,57.2,33.8,41,29.76,10.0,North,8.1,-,N/A,,Clear,360,2012-10-14 00:15:00
7:35 PM,54.9,33.8,45,29.77,10.0,North,8.1,-,N/A,,Clear,360,2012-10-14 00:35:00
7:55 PM,54.0,34.2,47,29.79,10.0,North,8.1,-,N/A,,Scattered Clouds,350,2012-10-14 00:55:00
8:15 PM,58.6,35.6,42,29.79,10.0,NNW,6.9,-,N/A,,Mostly Cloudy,340,2012-10-14 01:15:00
8:35 PM,59.0,35.1,41,29.80,10.0,NNW,8.1,-,N/A,,Mostly Cloudy,340,2012-10-14 01:35:00
8:55 PM,60.8,33.8,36,29.80,10.0,North,15.0,-,N/A,,Mostly Cloudy,360,2012-10-14 01:55:00
9:15 PM,61.3,32.0,33,29.81,10.0,North,15.0,20.7,N/A,,Scattered Clouds,360,2012-10-14 02:15:00
9:35 PM,62.1,32.0,32,29.82,10.0,North,16.1,-,N/A,,Clear,360,2012-10-14 02:35:00
9:55 PM,61.0,32.0,34,29.83,10.0,North,13.8,-,N/A,,Clear,360,2012-10-14 02:55:00
10:15 PM,59.9,31.3,34,29.84,10.0,North,13.8,-,N/A,,Scattered Clouds,360,2012-10-14 03:15:00
10:35 PM,59.0,30.2,34,29.85,10.0,North,9.2,-,N/A,,Clear,10,2012-10-14 03:35:00
10:55 PM,55.4,32.0,41,29.86,10.0,North,10.4,-,N/A,,Clear,360,2012-10-14 03:55:00
11:15 PM,52.7,31.1,44,29.87,10.0,North,8.1,-,N/A,,Clear,350,2012-10-14 04:15:00
11:35 PM,53.1,31.3,43,29.87,10.0,NNW,10.4,-,N/A,,Clear,340,2012-10-14 04:35:00
11:55 PM,53.6,32.0,44,29.88,10.0,NNW,9.2,-,N/A,,Clear,330,2012-10-14 04:55:00